Location: Boiro
(42.6475°N, 8.8834°W)
Time: 12:02:44
(UTC+01:00)

Vanguard 1 Rocket - Pass Details

Date: 30 November 2021
Orbit: 651 x 4224 km, 34.3° (Epoch: 21 January)

Event Time Altitude Azimuth Distance (km) Brightness Sun altitude
Exits shadow 02:27:28 15° 105° (ESE) 4,738 11.0 -65.2°
Drops below altitude 10° 02:31:53 10° 91° (E) 5,673 11.5 -64.7°
Sets 02:39:34 0° 77° (ENE) 7,415 12.3 -63.8°
